This demonstration page uses our WeatherBlox Daily Observations layout. Learn more.

Left ArrowRight Arrow

34.02893, -84.19858

Hourly Observations for November 6, 2022

Temp ( °F °C ) Dew Point ( °F °C ) Humidity (%) Winds ( mph kmh ) Pressure ( in mb ) Visibility ( mi km ) Precip ( " mm )
12:36 am 00:36 Mostly Cloudy 70 21.1 64 17.8 81 81 WSW 3 6 29.99 1016 10 16 0.00 0.00
12:53 am 00:53 Cloudy 69 20.6 64 17.8 84 84 W 7 11 30.01 1016 10 16 0.00 0.00
1:53 am 01:53 Cloudy 68 20 64 17.8 87 87 Calm 30.02 1017 10 16 0.00 0.00
1:17 am 01:17 Partly Cloudy 68 20 64 17.8 87 87 Calm 30.02 1016 10 16 0.00 0.00
1:53 am 01:53 Clear 64 17.8 63 17.2 96 96 Calm 30.01 1016 10 16 0.00 0.00
2:22 am 02:22 Mostly Cloudy 65 18.3 64 17.8 97 97 Calm 30.03 1017 10 16 0.00 0.00
2:53 am 02:53 Cloudy 67 19.4 65 18.3 93 93 Calm 30.01 1016 10 16 0.00 0.00
3:53 am 03:53 Cloudy 68 20 65 18.3 90 90 Calm 30.03 1017 10 16 0.00 0.00
4:53 am 04:53 Cloudy 68 20 65 18.3 90 90 Calm 30.04 1017 10 16 0.00 0.00
5:53 am 05:53 Cloudy 67 19.4 65 18.3 93 93 Calm 30.07 1018 10 16 0.00 0.00
6:53 am 06:53 Cloudy 68 20 66 18.9 93 93 Calm 30.09 1019 10 16 0.00 0.00
7:53 am 07:53 Cloudy 68 20 66 18.9 93 93 Calm 30.10 1019 10 16 0.00 0.00
8:53 am 08:53 Cloudy 70 21.1 67 19.4 90 90 Calm 30.12 1020 10 16 0.00 0.00
9:53 am 09:53 Cloudy 74 23.3 68 20 82 82 VRB 5 7 30.13 1020 10 16 0.00 0.00
10:53 am 10:53 Mostly Cloudy 74 23.3 66 18.9 76 76 S 6 9 30.14 1021 10 16 0.00 0.00
11:53 am 11:53 Cloudy 76 24.4 66 18.9 71 71 Calm 30.12 1020 10 16 0.00 0.00
12:53 pm 12:53 Mostly Cloudy 78 25.6 66 18.9 67 67 S 6 9 30.10 1019 10 16 0.00 0.00
1:00 pm 13:00 Mostly Cloudy 77 25 66 18.9 69 69 SSE 7 11 30.10 1019 10 16 0.00 0.00
1:53 pm 13:53 Partly Cloudy 80 26.7 66 18.9 62 62 VRB 3 6 30.09 1019 10 16 0.00 0.00
2:53 pm 14:53 Mostly Sunny 80 26.7 64 17.8 58 58 Calm 30.08 1019 10 16 0.00 0.00
3:53 pm 15:53 Partly Cloudy 80 26.7 65 18.3 60 60 S 7 11 30.09 1019 10 16 0.00 0.00
4:53 pm 16:53 Sunny 79 26.1 65 18.3 62 62 SSE 5 7 30.09 1019 10 16 0.00 0.00
5:53 pm 17:53 Clear 73 22.8 65 18.3 76 76 Calm 30.10 1019 10 16 0.00 0.00
6:53 pm 18:53 Clear 68 20 64 17.8 87 87 Calm 30.12 1020 10 16 0.00 0.00
7:53 pm 19:53 Clear 68 20 65 18.3 90 90 Calm 30.14 1021 10 16 0.00 0.00
8:53 pm 20:53 Clear 66 18.9 63 17.2 90 90 Calm 30.16 1021 9 14 0.00 0.00
9:53 pm 21:53 Clear 66 18.9 64 17.8 93 93 Calm 30.17 1022 9 14 0.00 0.00
10:53 pm 22:53 Clear 64 17.8 62 16.7 93 93 Calm 30.18 1022 9 14 0.00 0.00
11:53 pm 23:53 Clear 64 17.8 63 17.2 96 96 Calm 30.19 1022 9 14 0.00 0.00

Powered by AerisWeather